Погода в Райском

Украина / Донецкая область     48°34′41″N   37°28′16″E
темп.,
°C
ветер,
м/с
пор.,
м/с
влажн.,
%
обл.,
%
осадки,
мм/ч
давл.,
гПа
погр.,
м
24 сентября, пт
пт2400:00+9ссз1180100 0.0 101346
03:00+8сз228221 0.1 1013102
06:00+6з22923 0.0 101232
09:00+10зюз34675 0.0 1012462
12:00+14юз574693 0.0 10101809
15:00+13юз5749100 0.0 10101432
18:00+13юз5849100 0.0 1008631
21:00+9ю51180100 0.7 1008705
25 сентября, сб
сб2500:00+9ю51190100 2.1 1006711
03:00+9з379196 2.2 1006309
06:00+9зюз2593100 0.0 1007223
09:00+11з4578100 0.0 1008456
12:00+11з5674100 0.5 1010537
15:00+15зсз455512 0.5 10111232
18:00+13зсз4760100 0.0 1013359
21:00+11з4873100 0.1 1015277
26 сентября, вс
вс2600:00+11з4873100 0.0 1016275
03:00+11зюз4977100 0.0 1016393
06:00+11юз51177100 0.1 1015526
09:00+12зюз71276100 0.1 1014555
12:00+17зсз9116354 0.4 10121310
15:00+18зсз81150100 0.9 10121674
18:00+14сз813550 0.0 1014975
21:00+11сз61164100 0.0 1015448
27 сентября, пн
пн2700:00+10сз612635 0.0 1016490
03:00+9сз511774 0.0 1016443
06:00+7сз511895 0.0 1017393
09:00+9ссз6976100 0.0 1018533
12:00+13с5762100 0.0 10191198
15:00+15с565556 0.3 10191454
18:00+13ссз336259 0.1 102039
21:00+12с356967 0.1 1021151
28 сентября, вт
вт2800:00+9ссв338783 0.0 102256
03:00+11ссв3678100 0.0 1022223
06:00+10ссв357297 0.0 1023205
09:00+12ссв465894 0.0 1024479
12:00+15св454268 0.0 10241602
15:00+16св5437100 0.0 10242032
18:00+13св464967 0.0 1025238
21:00+12св4864100 0.0 1026387